Location: Alphen
(52.1351°N, 4.6549°E)
Time: 01:45:27
(UTC+00:00)

ADEOS - Pass Details

Date: 27 January 2021
Orbit: 792 x 794 km, 98.9° (Epoch: 27 February)

Event Time Altitude Azimuth Distance (km) Brightness Sun altitude
Rises 04:34:59 0° 16° (NNE) 3,307 7.0 -26.5°
Reaches altitude 10° 04:37:20 10° 18° (NNE) 2,373 6.3 -26.2°
Maximum altitude 04:42:35 76° 105° (ESE) 821 3.6 -25.3°
Enters shadow 04:47:40 11° 191° (S) 2,312 5.8 -24.6°
